GFSMA_250_spd_000.txt.gz
Wind_Speed
62 58 55 45 42 43 44 48 48 46 45 46 44 47 50 51 52 55 58 62 66 68 68 67 64 67 72 73 74 74 74 75 77 76 73 70 68 67 66 66 66 67 68
56 54 47 42 43 43 44 44 43 42 43 43 44 45 49 50 52 57 59 63 66 71 72 74 72 73 75 77 78 82 82 80 82 81 77 74 73 71 72 72 73 72 73
55 49 44 42 44 41 43 42 42 41 41 43 44 46 46 47 52 53 59 63 66 71 75 75 79 81 82 84 84 86 88 88 83 82 79 80 79 77 77 78 78 77 76
49 43 44 43 43 42 42 42 42 40 41 43 44 46 46 47 49 52 55 58 64 70 77 82 83 85 88 90 89 89 87 89 86 84 84 82 82 82 84 83 81 80 78
44 42 45 44 45 45 45 44 44 44 46 47 48 48 48 49 51 53 56 57 61 63 68 74 79 83 84 87 88 87 86 88 88 88 88 88 87 87 88 89 88 87 85
43 43 44 43 46 49 49 49 49 48 50 52 54 55 55 55 56 57 59 61 63 65 69 72 76 79 82 84 86 88 90 91 91 92 93 94 93 93 92 93 93 93 91
41 42 44 46 48 48 49 50 51 51 51 53 56 58 60 60 63 64 66 68 69 72 74 76 79 82 85 87 89 91 92 94 95 97 98 99 98 97 97 98 99 98 97
38 39 42 45 44 45 46 47 50 51 52 53 56 60 63 65 65 66 70 73 74 78 82 85 88 90 93 95 98 101 102 103 104 106 106 106 106 106 106 107 106 107 106
35 37 40 41 43 44 46 48 51 55 57 56 57 59 62 66 68 74 76 78 79 83 86 90 93 96 99 101 103 106 109 110 112 112 114 115 115 115 115 115 116 116 116
40 42 44 45 46 48 50 52 55 58 62 64 65 65 66 66 67 67 78 84 86 88 91 94 97 102 105 107 109 112 115 116 118 119 120 122 123 124 125 125 125 126 125
44 46 47 48 51 53 56 59 61 63 66 69 69 72 74 75 74 71 70 79 86 89 92 96 101 103 105 108 110 112 115 116 117 119 120 122 123 125 126 127 127 128 127
46 50 51 54 56 59 63 67 69 71 74 74 75 75 77 80 83 83 81 80 82 87 94 99 101 104 105 108 111 113 113 115 118 120 122 123 124 124 125 126 126 126 127
52 56 58 61 64 68 72 76 77 78 81 82 83 84 84 85 84 85 87 87 90 91 90 93 97 100 101 103 107 111 113 116 118 121 123 122 121 121 121 121 122 122 123
58 61 65 68 71 74 78 82 83 88 89 88 87 87 86 87 89 93 95 92 80 82 88 93 95 98 100 102 106 110 112 116 119 122 126 129 131 134 134 135 133 133 131
64 67 71 75 79 81 85 88 92 92 92 90 88 88 89 92 95 93 91 93 91 83 81 88 97 104 108 112 116 119 123 126 130 134 138 138 138 139 137 136 137 137 135
69 74 78 81 85 88 92 96 96 94 92 91 90 92 95 95 93 94 94 93 97 99 93 99 105 111 115 120 125 128 132 134 136 136 135 131 127 125 124 122 121 120 119
76 82 85 88 92 96 100 99 96 92 90 92 95 96 94 94 95 93 95 99 104 112 113 109 117 121 125 126 129 132 133 128 120 117 113 110 107 109 110 111 111 111 111
84 88 91 95 99 103 102 96 93 92 94 96 97 95 94 93 94 99 104 109 114 120 123 124 123 129 131 131 126 117 112 109 105 102 100 96 96 96 97 95 97 99 99
90 94 98 102 105 104 97 93 93 96 98 98 96 93 92 96 103 109 115 119 123 126 128 131 128 126 118 113 106 104 101 96 92 90 85 82 80 81 82 81 83 84 85
96 100 104 107 105 96 94 96 97 99 98 97 93 96 102 107 113 119 124 126 127 128 128 124 117 107 101 97 95 90 90 87 84 78 77 75 76 72 72 73 76 77 77
101 105 109 104 97 96 97 98 98 98 96 94 99 105 112 118 123 127 127 126 125 119 113 108 101 97 91 88 85 83 78 76 78 69 72 73 69 68 69 69 70 71 71
106 109 101 95 98 98 98 99 98 93 97 101 107 115 122 126 129 130 127 119 113 107 99 95 90 85 83 80 77 75 71 69 69 64 66 67 60 62 59 58 58 59 60
107 99 97 98 98 98 100 97 95 100 104 112 118 124 128 131 129 121 112 106 103 101 94 85 79 78 75 72 69 69 65 63 61 61 62 58 53 50 49 48 48 47 47
96 96 98 98 98 100 96 96 100 107 115 122 126 132 132 125 117 109 101 97 95 91 85 81 75 71 68 67 66 63 60 58 54 51 52 50 44 43 40 40 41 41 41
96 96 97 98 99 96 99 103 110 117 123 128 133 133 123 113 105 100 95 90 87 83 79 74 70 67 64 61 59 59 56 52 47 45 43 42 38 37 34 34 34 35 34
94 95 97 95 96 100 106 112 118 123 129 131 130 124 114 107 100 94 88 82 79 75 73 68 63 59 56 54 51 50 47 44 41 37 37 33 32 31 31 29 28 28 25

GFSMA_250_spd_003.txt.gz
Wind_Speed
74 72 69 70 68 63 55 45 42 43 44 46 43 43 43 44 45 46 47 48 51 54 57 59 61 67 71 74 72 72 72 71 71 74 76 77 75 75 76 76 73 71 67
75 71 67 64 64 58 48 43 41 40 43 43 43 43 44 45 46 47 48 48 49 52 54 59 64 66 70 74 78 79 78 76 74 75 77 77 78 81 81 81 81 78 74
67 63 63 62 57 47 42 43 45 46 48 48 48 45 46 48 49 50 51 52 53 53 54 57 60 65 70 74 77 83 86 88 88 88 85 85 88 89 88 87 85 83 82
68 58 59 53 46 42 42 44 46 47 50 54 54 54 55 55 57 57 57 57 57 58 59 61 61 62 65 68 72 78 83 89 91 91 93 95 95 96 93 91 89 88 86
56 55 51 43 42 43 43 45 46 48 50 52 53 54 55 57 58 59 60 62 63 65 66 66 67 68 70 73 74 76 77 81 84 89 93 96 95 94 93 91 90 90 89
51 50 44 43 45 44 44 45 45 47 49 51 53 54 55 57 59 61 62 64 66 68 71 72 74 75 77 79 80 82 83 85 87 90 93 94 95 95 95 95 95 95 95
47 46 44 42 39 39 41 42 43 44 47 50 53 55 56 59 62 64 67 69 70 72 75 76 78 80 83 85 86 87 89 92 93 97 98 99 101 102 102 101 101 100 100
43 40 40 39 41 43 44 46 48 48 50 52 54 57 61 62 64 67 71 74 75 77 79 80 83 85 87 89 90 93 95 97 99 103 104 105 107 108 108 108 109 109 109
41 42 44 45 46 47 48 51 53 54 55 55 58 61 65 70 72 78 79 81 81 82 84 86 88 90 92 94 96 98 101 102 104 106 108 111 112 114 115 115 117 117 116
41 44 46 47 50 51 52 55 58 61 63 65 68 69 72 73 74 76 84 87 86 86 89 92 94 97 99 100 100 102 104 106 108 110 112 113 115 118 119 118 119 121 121
44 46 49 51 52 53 55 57 61 65 69 72 74 77 81 83 83 83 80 84 88 89 90 92 94 98 101 103 105 108 111 112 113 115 116 118 119 118 118 115 113 115 116
46 49 53 55 56 57 60 64 67 71 75 79 81 85 88 91 95 95 91 88 84 83 89 93 97 101 106 108 109 110 110 109 109 110 111 112 113 113 112 113 114 113 113
51 53 57 58 61 62 65 70 75 79 83 86 89 94 97 99 98 96 90 84 80 83 86 91 96 100 102 104 105 107 108 108 109 111 113 115 115 115 115 115 116 116 116
55 58 61 63 66 68 72 77 83 88 91 93 98 102 104 101 95 91 88 86 85 87 85 87 92 94 95 97 100 105 108 112 116 118 121 122 122 123 123 121 121 122 122
59 62 65 69 72 75 79 85 91 94 98 102 105 107 100 93 92 95 97 95 90 80 80 85 88 93 99 104 110 114 117 120 123 126 128 129 131 132 131 129 129 128 129
63 67 71 75 77 81 86 92 97 101 105 108 109 100 96 98 99 96 96 96 95 93 85 92 98 104 110 115 119 123 126 128 129 129 129 129 131 128 125 123 123 124 123
69 73 77 79 82 87 93 98 102 107 110 113 103 100 102 98 97 100 96 95 99 105 109 105 115 120 123 125 126 128 129 127 122 122 119 115 110 106 105 106 107 108 108
74 77 80 83 89 94 100 104 109 113 115 104 103 104 99 100 100 96 99 103 110 118 123 124 121 125 128 128 122 116 112 108 104 103 103 100 98 98 100 100 100 100 100
78 81 85 91 96 101 105 110 113 116 107 106 105 101 102 98 98 102 108 115 121 125 131 133 123 117 112 110 105 102 99 98 96 95 94 90 88 88 89 88 87 87 87
84 88 92 97 101 106 110 113 117 108 107 106 103 102 98 102 107 112 118 124 128 132 128 117 108 103 100 98 95 91 91 89 86 86 81 78 78 79 75 74 76 77 77
89 94 99 102 106 109 113 116 107 108 105 103 101 101 106 111 117 123 128 129 128 120 109 103 98 95 92 88 86 84 80 78 77 74 69 75 69 70 69 70 69 69 69
95 99 102 105 109 113 114 107 108 104 103 99 103 108 115 120 126 131 131 124 116 106 96 90 89 86 85 80 78 74 69 67 68 63 66 69 63 64 63 63 62 61 60
98 101 104 108 113 108 106 107 102 100 101 106 111 117 123 129 132 126 119 113 106 100 95 88 85 83 79 74 71 66 63 60 59 60 61 58 58 56 55 53 50 49 49
100 103 108 110 105 105 105 100 97 102 107 114 121 127 131 131 126 116 107 102 99 94 87 83 78 75 71 68 64 61 58 55 51 52 52 51 50 46 43 41 39 40 41
103 107 106 102 104 102 97 97 101 107 113 121 128 134 133 126 116 108 100 97 92 85 81 75 71 68 64 61 59 56 54 52 47 45 42 41 40 37 36 35 34 35 34
103 99 101 103 98 93 97 102 108 114 119 127 135 133 126 116 108 102 97 89 84 80 75 69 64 60 58 55 52 50 47 45 41 38 38 37 35 32 31 30 28 29 26

GFSMA_250_spd_006.txt.gz
Wind_Speed
69 71 70 71 72 71 67 72 66 63 48 42 41 43 43 45 46 46 46 45 45 46 48 51 51 51 50 51 54 56 61 67 72 76 76 74 74 74 69 70 71 73 73
69 69 69 67 69 66 66 64 62 49 41 39 40 43 45 47 48 49 50 51 53 55 56 56 57 57 57 57 57 56 58 62 68 72 77 79 81 81 78 75 74 76 78
64 65 68 67 67 63 61 58 52 43 42 42 43 45 47 48 49 50 52 53 53 54 56 58 59 60 62 63 63 63 63 65 65 67 72 80 84 88 87 86 85 82 81
65 69 69 69 65 58 55 55 46 45 43 43 44 44 45 46 46 48 51 52 55 56 58 60 61 62 64 65 67 69 70 72 72 72 72 74 77 79 85 91 95 95 94
69 71 68 65 57 54 50 48 46 43 41 43 44 45 47 48 50 52 54 55 57 59 61 63 66 68 70 72 73 74 75 77 78 77 79 81 82 82 83 84 87 90 95
70 68 58 54 51 51 44 43 41 40 44 46 48 47 50 53 53 55 58 61 62 65 68 70 71 73 76 78 80 80 81 82 83 83 86 86 87 87 89 90 90 91 92
59 57 53 50 49 45 42 42 42 44 47 49 51 51 53 56 60 64 67 70 71 74 78 80 82 84 85 85 85 86 88 89 90 90 92 93 93 95 96 97 97 97 97
51 51 50 47 44 41 43 45 46 49 51 53 55 57 59 61 63 67 72 76 78 82 85 88 90 91 93 93 93 92 93 94 95 96 97 98 99 100 101 103 104 105 105
47 47 44 41 41 43 44 48 49 52 53 55 57 57 60 64 69 79 84 86 86 90 95 98 99 100 100 98 97 96 96 97 99 101 102 103 104 105 107 108 109 109 109
41 41 40 41 43 46 49 52 53 56 58 61 63 65 67 69 72 76 88 96 99 103 106 109 105 102 98 95 93 93 95 97 99 100 102 104 105 106 107 108 110 111 113
41 41 41 44 47 50 53 55 58 61 63 66 69 72 75 77 81 80 82 92 101 107 109 102 96 94 95 96 97 97 97 99 102 104 106 108 110 111 112 113 114 116 117
43 43 45 47 51 54 58 60 63 67 69 72 75 77 81 85 92 94 94 97 99 104 99 97 98 99 99 100 102 103 105 106 107 108 110 111 112 112 111 111 111 112 111
46 47 49 53 56 59 62 66 69 71 74 79 81 84 87 92 97 100 103 105 107 94 91 94 97 98 98 101 103 105 105 107 108 109 111 113 113 113 113 113 113 112 111
50 52 55 59 61 65 68 71 74 77 81 84 87 90 95 100 105 109 113 114 100 97 96 90 92 95 95 96 98 100 102 107 111 113 116 119 121 123 124 123 122 122 122
55 56 59 62 66 69 73 76 80 84 86 90 93 97 102 107 112 116 121 110 110 96 86 90 90 92 96 101 105 109 113 116 120 125 129 132 132 132 131 129 128 127 126
59 61 63 67 71 73 77 80 84 88 92 96 99 104 109 113 118 121 113 113 106 101 88 91 95 98 103 109 115 120 123 126 127 126 124 126 128 128 124 122 118 116 118
62 65 68 72 75 78 82 86 90 94 98 101 106 110 115 118 120 114 112 107 104 104 104 101 110 114 118 123 125 121 116 113 113 114 114 112 108 108 109 107 103 101 102
67 70 74 77 80 83 87 91 96 100 103 107 111 115 119 119 115 111 106 104 108 113 118 117 118 124 129 125 119 113 109 106 103 100 98 97 97 96 95 94 95 96 98
71 74 76 80 84 88 92 97 101 105 109 112 115 119 116 113 109 105 106 110 116 122 127 127 125 121 116 112 103 100 97 94 92 88 86 86 86 87 87 86 86 87 87
73 76 80 84 89 94 98 101 104 108 112 115 119 114 113 108 104 107 112 119 124 128 129 125 117 109 103 98 94 88 87 84 81 78 81 77 75 75 74 75 76 77 77
76 79 84 88 92 96 100 103 107 111 115 117 112 111 105 104 109 115 120 125 131 132 121 112 106 98 95 91 87 82 79 77 72 72 70 63 68 64 66 66 66 67 68
79 84 88 92 95 99 103 107 110 115 112 111 107 103 106 111 117 122 128 132 133 120 105 99 97 94 90 85 82 76 71 67 65 60 60 58 61 56 57 57 58 57 58
83 86 90 94 99 102 106 110 113 108 108 104 102 107 113 119 124 128 132 128 118 110 102 96 94 89 85 79 73 68 62 58 58 57 55 49 53 48 51 51 50 48 50
85 90 94 97 102 105 110 108 107 105 100 102 109 114 119 126 130 130 120 116 112 105 101 94 86 82 76 70 65 59 58 52 50 51 50 45 46 41 42 44 41 40 45
88 93 97 101 105 108 103 104 97 97 103 109 116 123 128 130 131 119 114 108 103 101 93 84 78 73 66 61 59 56 51 48 43 44 45 42 41 38 36 38 33 34 37
92 96 101 104 99 100 96 91 96 102 107 113 120 129 132 129 117 114 106 102 98 90 83 77 69 63 59 55 51 48 48 46 42 40 39 39 39 40 32 36 26 27 30

GFSMA_250_spd_009.txt.gz
Wind_Speed
67 67 67 68 68 69 69 68 65 66 66 65 60 59 51 41 39 38 40 40 41 41 41 42 44 44 46 47 48 50 51 52 53 53 53 54 56 62 69 73 75 73 73
71 68 67 68 70 69 67 67 66 67 69 60 57 52 44 41 40 40 40 41 41 42 43 44 45 47 48 50 52 53 55 57 57 58 58 59 60 60 62 69 75 78 80
63 65 65 66 67 65 64 64 66 67 65 58 54 49 43 42 40 42 42 43 44 45 46 47 48 49 51 52 54 56 59 62 64 65 65 66 66 66 65 67 68 74 77
68 64 63 62 62 62 64 67 67 64 58 55 51 46 41 40 42 46 46 46 48 49 51 52 54 56 59 61 62 63 64 68 69 69 70 73 76 74 73 73 73 73 76
65 62 64 61 62 64 68 67 66 59 55 53 48 44 44 44 48 49 50 51 52 54 56 57 60 63 66 69 71 73 74 77 79 80 78 79 80 80 81 80 80 81 81
57 60 64 66 67 69 67 64 58 54 51 47 46 46 47 48 53 55 56 57 57 59 61 62 65 69 72 75 78 80 82 86 88 90 88 89 88 87 87 87 88 88 88
54 56 58 59 62 60 58 56 52 51 49 47 49 48 51 53 57 59 60 62 64 67 69 72 75 78 82 84 88 91 93 97 98 97 95 95 95 94 93 93 94 95 95
51 54 55 55 54 53 54 52 50 48 47 48 51 53 56 56 60 64 67 69 71 75 78 80 84 87 90 93 96 99 101 103 98 94 91 91 92 94 96 97 97 99 101
49 50 50 50 50 52 50 49 48 47 49 52 55 57 59 63 65 71 74 75 78 83 85 87 91 94 97 99 103 106 108 101 95 93 93 93 93 94 95 96 99 102 104
50 49 47 50 49 48 48 47 47 49 53 55 59 61 65 67 69 71 80 85 87 90 94 97 100 104 108 110 113 115 104 99 99 98 98 97 98 99 99 101 101 104 105
47 46 46 47 47 48 47 49 50 53 55 60 63 68 71 73 74 74 77 86 90 95 99 103 107 112 115 118 121 112 109 107 103 100 98 98 99 100 102 105 107 109 111
46 45 46 46 48 50 51 53 55 57 60 65 68 73 76 79 82 82 82 84 88 94 103 108 115 119 122 124 115 114 110 106 105 104 103 103 103 104 104 104 104 107 109
48 48 48 49 52 53 55 57 60 64 67 70 74 77 80 83 86 88 91 91 92 97 101 106 113 119 122 115 116 111 109 108 107 107 107 108 109 111 112 112 112 113 112
50 51 51 53 55 57 59 62 65 68 72 75 79 83 86 88 91 95 98 99 99 103 107 111 119 118 115 112 107 107 107 108 110 114 118 122 125 127 128 127 127 127 126
52 54 55 57 58 61 64 66 70 74 77 82 86 89 92 94 99 102 106 108 108 106 110 119 113 115 109 107 109 111 112 114 118 124 129 131 133 133 131 131 131 130 130
54 56 59 60 63 65 68 72 76 80 84 88 90 94 97 101 105 108 110 113 118 120 115 113 110 106 108 110 114 117 123 127 131 129 124 120 117 118 119 118 118 118 117
56 59 62 64 66 69 73 76 80 85 88 92 95 98 102 105 109 112 116 120 124 121 116 103 106 111 116 120 124 128 128 122 117 113 109 106 105 105 103 105 105 104 102
59 62 64 66 70 73 76 80 84 87 91 95 99 102 106 109 114 117 122 125 119 119 111 109 113 118 124 129 131 122 115 110 101 97 97 98 97 95 96 94 96 96 94
62 64 67 71 73 77 80 83 87 91 95 99 102 106 110 114 118 123 121 119 114 112 118 120 120 127 130 126 115 110 102 95 93 90 88 82 83 85 85 86 85 85 84
64 67 70 73 77 80 83 86 90 95 99 102 107 110 114 119 121 117 115 109 115 120 125 127 129 127 119 112 103 94 92 88 83 83 78 75 76 73 73 74 74 75 74
67 70 74 77 81 83 86 90 93 97 103 107 111 115 120 117 115 109 111 117 123 127 129 130 122 114 106 97 93 89 82 81 77 76 72 66 69 64 64 66 68 69 67
69 73 78 81 83 86 90 92 97 102 105 110 115 116 112 110 106 112 118 125 130 133 130 116 108 100 98 95 90 84 79 75 74 67 66 56 60 59 57 57 58 58 59
72 77 81 83 85 88 93 98 101 105 110 113 109 109 101 107 113 117 123 128 134 130 117 107 102 98 95 87 83 80 74 67 59 59 63 53 50 48 46 49 50 50 49
76 79 82 85 89 93 97 101 105 110 107 106 100 103 108 112 119 124 127 131 125 116 109 104 99 92 84 80 75 72 66 61 53 49 54 51 48 39 42 40 40 40 43
79 82 84 89 94 96 100 106 106 104 99 96 103 109 114 120 125 129 130 120 113 107 103 98 89 82 76 71 66 64 58 53 50 42 47 43 44 40 41 39 35 30 37
81 85 89 92 95 101 105 102 100 90 97 102 109 115 121 127 130 128 118 110 105 101 95 87 80 72 66 60 55 53 51 50 46 41 40 39 37 38 31 32 31 26 31

GFSMA_250_spd_012.txt.gz
Wind_Speed
81 79 78 76 76 75 73 70 70 69 66 67 68 67 64 64 63 57 53 49 45 40 38 38 39 39 40 40 41 43 44 44 45 45 47 49 51 51 51 52 52 53 54
79 78 77 75 73 73 73 71 71 69 66 64 64 64 66 66 61 55 52 47 43 39 41 42 41 42 42 43 44 46 48 49 51 52 53 54 56 57 58 60 60 60 61
71 72 72 73 71 71 71 72 69 67 64 62 63 64 68 67 60 54 50 44 44 44 45 46 47 48 49 49 50 52 54 55 56 58 59 61 63 64 65 66 67 69 69
68 70 70 68 69 70 71 70 68 66 63 63 66 66 67 63 58 53 48 48 48 49 50 53 53 54 55 56 56 58 59 61 64 64 65 67 69 71 73 75 77 78 78
54 54 54 56 58 61 63 64 65 66 66 67 66 66 61 58 55 50 51 52 52 53 55 58 59 59 60 62 64 65 68 70 72 75 76 77 78 80 82 83 85 87 88
49 51 52 52 52 53 58 61 64 65 66 65 64 61 58 56 53 52 54 55 55 58 59 60 63 66 68 70 72 75 78 79 82 84 85 86 87 90 92 93 94 92 89
51 50 50 52 53 54 57 59 61 61 61 61 59 58 56 54 53 55 56 60 61 62 64 66 68 70 72 74 76 80 84 87 90 92 93 96 97 99 102 101 95 88 85
50 49 52 52 50 51 53 55 55 57 58 59 59 56 55 54 55 58 61 63 66 68 70 72 74 75 77 80 84 87 90 92 95 97 99 101 104 107 107 104 96 92 90
52 52 53 52 52 53 52 54 55 58 58 58 57 56 55 55 58 62 65 68 69 73 76 78 80 82 84 85 88 92 95 97 99 102 105 108 111 112 110 103 104 102 99
55 54 53 53 53 53 54 55 56 56 54 54 55 56 56 59 62 66 72 74 77 80 83 84 87 90 92 93 96 97 100 101 104 107 110 113 115 108 107 107 102 98 97
57 57 56 55 54 53 52 54 52 52 52 53 56 58 61 64 66 69 74 81 82 86 89 93 98 101 102 104 107 108 109 111 113 116 119 116 112 112 108 100 96 94 94
58 58 56 57 56 53 53 52 52 55 57 58 60 63 66 69 72 73 76 81 84 92 95 100 103 107 109 111 113 115 117 120 123 125 120 120 117 107 103 100 99 100 100
59 58 57 58 57 55 55 53 56 57 59 61 64 68 71 73 77 80 82 85 88 93 96 99 105 110 114 118 120 122 125 129 127 123 123 119 114 113 113 115 117 118 116
60 58 58 59 58 57 57 58 59 61 63 65 69 73 76 79 83 86 89 91 92 97 100 103 107 110 113 116 121 126 126 121 122 119 116 116 119 123 127 130 131 131 130
62 60 60 59 59 59 60 62 63 65 67 71 74 77 81 84 87 91 93 96 97 97 101 107 113 116 119 123 126 122 121 115 116 117 118 121 124 130 135 131 126 123 122
63 63 61 60 61 61 63 64 67 69 72 75 78 81 84 88 91 94 96 100 103 104 105 114 117 121 125 121 121 117 116 120 123 125 128 127 124 120 117 114 112 112 110
64 65 61 60 63 64 65 67 69 73 76 78 81 84 88 91 94 98 102 104 109 114 113 116 123 120 119 115 118 122 125 127 130 130 121 113 111 107 102 103 102 102 100
65 64 62 62 64 65 67 70 73 76 79 82 85 87 91 94 99 102 106 111 114 118 121 118 116 111 117 122 125 129 132 132 122 113 108 103 101 94 95 92 92 92 91
64 63 63 64 64 67 70 73 76 79 82 84 87 91 95 99 103 108 112 115 121 123 119 112 108 118 123 128 130 134 128 118 109 100 95 94 87 87 85 85 87 84 83
62 63 63 64 67 70 73 76 79 82 85 89 93 96 100 105 109 113 118 121 119 114 110 116 119 122 128 132 132 119 111 104 97 89 88 87 76 80 79 78 79 79 78
63 61 62 66 69 72 76 78 82 85 89 94 98 102 106 110 115 119 119 115 108 113 120 122 126 129 133 127 115 104 96 92 89 80 85 85 72 71 72 69 69 71 70
61 62 64 68 72 75 78 83 86 89 95 99 103 108 112 117 119 114 107 110 117 123 127 129 132 129 119 109 102 98 89 87 84 74 77 77 64 63 62 63 61 63 63
60 61 66 71 74 78 83 86 90 95 99 104 109 113 117 115 107 105 110 118 125 132 133 132 124 114 105 99 96 93 87 83 75 67 69 66 61 56 54 54 52 54 56
58 64 68 72 77 81 85 90 94 100 104 109 115 117 111 102 106 112 118 125 131 135 134 122 111 102 96 91 88 86 80 76 68 56 56 59 55 49 50 47 46 47 50
60 65 70 75 79 84 89 93 99 103 109 113 112 107 102 107 115 120 126 129 134 133 120 109 101 96 90 86 81 76 72 67 64 53 48 47 46 45 44 43 42 44 45
63 68 72 77 83 87 93 98 104 110 111 107 100 101 107 114 121 128 130 133 128 117 107 101 94 88 84 77 71 65 63 61 57 54 41 44 40 44 35 36 37 37 38

GFSMA_250_spd_015.txt.gz
Wind_Speed
82 87 84 82 80 80 81 82 82 81 82 82 79 73 72 73 68 68 63 62 62 62 61 54 50 47 43 43 43 43 43 41 42 42 43 44 45 45 46 47 48 49 50
74 81 87 85 84 85 83 80 80 78 74 75 76 75 73 70 67 65 63 64 66 64 61 53 50 47 46 46 46 48 48 47 48 48 48 49 50 51 51 52 53 54 55
68 73 75 75 78 79 81 78 76 76 74 73 72 70 69 67 64 64 67 68 66 64 56 52 52 51 50 50 52 52 52 52 53 53 55 56 57 59 60 62 62 63 64
61 64 66 69 74 74 74 72 74 73 70 68 69 70 67 64 64 66 67 64 66 61 55 53 54 54 54 54 56 57 56 56 59 61 63 64 64 67 69 72 72 73 74
60 60 60 58 57 56 55 56 55 55 56 59 62 62 62 63 64 66 65 63 61 56 56 56 57 57 58 60 60 60 61 64 65 67 68 69 69 71 74 78 79 81 83
64 61 58 56 56 56 55 54 55 56 57 60 59 59 60 61 63 63 62 60 57 57 57 59 61 61 62 64 65 65 68 70 72 73 73 74 77 78 80 83 84 85 87
67 63 59 58 56 55 56 55 53 54 54 54 54 55 56 58 60 59 58 57 58 58 60 63 63 65 67 69 69 71 73 75 78 80 81 82 83 85 87 89 91 91 91
66 64 63 60 58 57 55 54 54 54 54 54 54 55 57 59 59 58 57 56 59 62 63 65 67 69 71 72 75 77 80 82 83 85 88 91 92 94 96 97 97 98 98
67 66 64 60 60 59 57 56 55 55 56 56 57 57 57 56 54 54 55 57 60 64 66 68 71 74 75 77 80 83 85 88 90 92 94 95 97 99 102 103 104 104 106
66 66 65 63 61 61 59 59 57 56 57 57 59 58 56 54 53 56 58 61 64 67 68 72 76 79 81 83 86 88 91 94 95 97 99 101 102 104 105 106 109 112 114
67 67 66 65 63 62 62 61 60 60 59 59 59 60 60 58 58 59 62 66 67 71 74 77 82 87 91 92 94 96 97 98 100 102 104 105 107 109 112 114 115 113 110
68 69 67 66 64 64 64 62 60 60 61 62 62 63 62 62 63 64 66 70 72 77 79 83 88 91 96 98 99 100 102 103 105 108 111 113 115 118 119 117 115 108 100
69 69 68 67 68 68 66 64 62 61 63 65 65 65 66 67 69 71 72 74 76 82 85 89 93 96 98 100 103 106 108 112 115 117 121 123 123 120 118 109 107 109 111
70 68 69 69 70 70 68 67 63 64 65 68 68 69 70 72 74 76 78 78 80 84 88 93 97 98 99 102 106 111 114 118 121 125 125 122 120 115 116 119 123 125 127
68 71 71 71 72 73 71 68 67 67 68 70 71 72 74 76 78 80 82 84 85 86 88 94 96 99 103 107 111 114 118 122 121 120 120 113 115 118 122 127 131 133 131
67 69 72 73 74 74 72 71 69 70 71 71 73 75 77 78 81 82 85 87 89 88 86 95 100 104 110 113 118 121 120 118 116 112 116 119 123 127 130 132 127 121 115
66 67 70 74 74 74 73 71 71 72 74 75 75 77 80 81 83 85 87 90 91 93 95 101 107 112 116 120 120 120 113 111 117 122 125 128 129 126 117 109 105 103 103
68 69 70 72 73 73 74 73 74 74 76 78 78 79 82 85 88 89 92 95 96 101 105 107 114 119 122 122 117 112 118 123 127 129 128 124 116 110 103 98 96 97 94
66 70 70 70 72 73 73 74 75 77 77 78 80 84 85 88 91 93 97 99 104 109 113 116 119 122 121 116 117 122 127 131 133 126 118 108 105 101 95 88 87 86 84
63 68 70 71 72 73 73 74 75 76 77 79 83 85 89 92 95 99 101 107 111 116 121 124 121 118 115 121 125 129 133 135 125 106 101 97 93 89 82 82 81 78 75
61 66 70 72 72 73 74 73 74 74 77 81 85 89 93 95 99 104 108 113 118 123 127 122 117 115 122 126 132 135 128 110 107 93 89 87 82 79 74 73 73 71 70
55 61 69 71 71 72 72 72 73 75 79 84 88 93 96 99 103 108 114 119 125 126 123 115 119 123 129 134 133 120 106 99 91 81 79 84 71 71 67 68 66 64 62
58 59 64 70 70 69 69 70 72 75 81 86 91 95 99 104 109 114 119 126 123 120 119 123 125 132 134 129 114 106 95 86 81 75 71 75 61 65 61 62 59 58 55
57 58 59 64 65 66 66 68 72 78 84 89 94 99 104 109 115 121 122 118 116 121 126 129 133 132 123 109 101 92 86 83 75 66 62 67 57 59 55 56 55 53 50
56 53 54 58 61 63 66 70 76 81 87 94 98 104 109 116 121 119 114 113 121 125 130 133 130 117 107 97 88 86 80 73 72 64 56 56 51 54 48 52 51 48 45
44 46 50 56 59 63 69 75 81 87 91 97 104 111 116 116 113 110 115 120 125 129 132 128 113 102 93 86 82 75 70 68 65 65 52 53 46 46 48 43 45 42 41

GFSMA_250_spd_018.txt.gz
Wind_Speed
69 70 70 71 73 77 80 82 81 87 86 84 80 80 81 81 82 80 76 73 73 69 64 63 62 62 64 60 53 54 50 47 45 44 44 43 43 43 42 42 42 43 43
70 68 67 65 66 69 71 75 77 80 84 84 85 88 88 84 81 76 74 70 67 67 66 64 63 64 61 55 52 54 52 51 50 48 49 48 49 49 48 49 49 50 51
73 70 65 65 65 65 66 68 70 70 71 72 73 75 75 76 75 73 69 67 64 63 62 63 64 62 58 53 54 55 55 53 53 54 54 53 54 54 54 56 58 59 59
75 73 68 65 65 64 63 62 62 62 62 63 65 67 67 61 58 56 56 60 60 60 61 61 61 59 56 55 56 57 57 56 58 59 59 59 59 60 61 63 64 65 66
74 73 71 68 67 65 62 61 60 59 58 56 56 55 55 56 57 59 59 57 58 57 59 59 60 58 56 57 58 59 60 62 62 64 64 65 66 67 68 69 70 71 71
69 72 72 71 70 68 66 63 61 59 57 57 57 57 55 55 56 56 57 57 57 55 56 57 57 57 57 58 60 62 64 67 67 68 70 71 72 74 74 75 75 77 78
69 69 71 71 70 70 69 65 64 63 59 57 55 56 56 56 57 56 56 56 56 57 55 57 56 56 57 60 63 65 68 69 71 73 74 77 79 80 81 83 83 83 85
66 68 69 69 71 71 70 68 66 64 63 60 58 55 54 58 57 57 57 57 55 56 56 55 55 56 59 62 65 67 69 72 75 77 80 82 84 86 88 89 90 92 93
64 67 67 67 68 68 69 68 66 67 66 63 62 60 58 57 59 62 60 58 57 58 57 57 60 62 63 66 68 70 73 76 79 81 84 88 90 92 94 95 96 96 97
61 65 67 65 66 68 69 69 68 68 68 66 65 62 62 62 62 65 63 62 61 62 61 63 66 68 69 71 73 77 79 83 86 89 91 93 94 95 96 97 97 98 100
60 63 65 66 66 67 69 70 70 69 69 67 66 65 66 65 65 64 66 66 66 67 68 70 72 75 77 79 81 82 84 86 89 92 94 95 96 97 98 99 101 102 104
59 60 63 64 66 67 70 71 72 73 72 71 70 68 68 68 68 67 67 69 69 74 73 74 76 78 79 83 85 87 90 92 94 96 97 98 100 101 104 105 108 110 111
55 56 60 64 67 68 69 73 75 75 75 74 72 71 72 73 71 71 69 70 72 76 77 81 81 81 83 85 88 90 92 95 97 99 101 104 105 107 110 111 111 106 98
55 54 54 61 68 68 70 72 77 78 78 77 75 75 76 75 75 76 76 74 74 76 80 85 87 88 87 88 90 93 95 98 101 105 109 112 114 115 112 106 97 102 107
55 54 55 59 65 70 71 73 76 77 79 80 79 79 80 79 79 81 81 81 79 78 81 89 90 92 93 95 97 98 101 105 109 112 116 116 116 109 101 105 111 116 121
58 56 55 57 62 68 72 74 76 78 79 81 83 84 84 83 84 85 85 85 86 85 83 90 93 95 98 100 103 105 108 111 116 118 117 112 105 106 111 116 121 126 129
59 56 57 57 58 63 70 75 76 78 80 82 84 85 86 86 86 87 87 88 89 91 91 94 96 98 100 103 108 111 115 118 120 118 107 109 112 117 120 123 125 123 117
59 57 56 56 59 62 66 71 76 78 79 81 83 85 87 88 88 88 89 90 92 96 96 95 99 103 106 110 113 116 119 119 112 111 114 119 120 124 121 115 108 104 103
59 56 55 57 59 59 63 68 72 79 81 82 82 83 85 86 87 88 89 91 94 97 99 98 102 108 112 116 118 119 116 111 115 118 121 125 124 115 106 100 96 95 92
56 55 57 59 62 62 64 67 71 76 80 83 83 83 83 84 85 87 89 92 95 97 100 104 108 112 118 121 119 113 113 119 126 126 121 117 107 101 95 90 89 87 84
53 54 60 62 64 63 67 67 69 72 76 81 81 81 81 82 83 85 88 92 96 101 106 110 114 118 121 119 112 116 121 126 131 118 107 108 94 90 85 83 79 76 70
54 59 62 66 67 67 67 68 69 70 72 74 77 78 80 81 83 86 89 95 101 106 110 114 117 118 116 112 116 123 128 129 124 104 90 95 81 83 75 71 69 66 62
56 61 65 66 68 66 65 65 67 68 65 65 70 75 79 81 84 88 94 101 108 114 117 116 114 110 112 119 124 128 126 117 107 93 78 88 75 68 66 63 62 58 56
62 61 64 67 67 68 67 66 61 58 59 64 71 76 78 83 89 95 100 107 114 117 120 116 112 116 121 125 124 119 107 100 96 88 70 70 71 61 58 53 56 54 53
60 62 63 63 64 63 58 55 56 60 65 70 74 79 85 90 96 102 108 113 119 118 113 115 120 123 125 122 109 99 92 86 82 82 64 61 60 56 50 45 48 49 49
63 63 62 57 52 52 55 59 63 66 71 75 82 88 94 99 104 109 112 114 111 112 116 122 126 125 116 104 94 85 79 74 69 72 60 57 51 46 53 45 43 48 45

GFSMA_250_spd_024.txt.gz
Wind_Speed
82 81 79 74 73 71 70 70 71 72 72 72 71 70 70 69 68 67 66 65 65 66 67 69 70 69 70 69 68 68 66 59 57 54 55 55 57 55 52 48 49 49 47
75 71 70 70 70 69 67 68 69 70 71 71 72 70 71 70 69 68 65 63 61 61 62 63 64 64 63 61 58 56 54 52 51 52 54 56 55 53 51 52 53 53 51
69 67 67 68 68 67 67 68 68 69 70 71 73 73 73 73 72 71 68 65 63 62 62 62 60 59 57 57 57 57 55 55 54 53 53 55 53 52 53 55 56 57 56
64 66 67 67 66 67 68 68 68 67 69 71 71 72 72 75 75 74 71 68 66 64 63 63 62 62 60 59 60 59 58 56 56 57 58 58 58 59 57 57 58 59 60
59 62 64 65 66 66 67 68 69 69 67 68 70 72 71 73 75 75 74 72 71 69 67 66 64 62 61 60 61 59 58 57 58 59 58 59 60 60 60 59 60 61 62
53 54 57 59 62 63 65 65 67 69 68 68 68 69 71 71 72 74 76 75 74 73 72 70 68 66 63 63 62 61 59 58 59 60 60 61 62 63 62 62 61 63 64
54 56 57 54 55 57 59 64 66 67 68 70 69 68 70 71 72 73 75 74 74 75 75 74 73 71 69 68 66 64 63 61 62 62 62 60 62 63 63 63 63 65 67
53 55 52 54 55 54 57 60 63 66 67 66 68 70 70 69 71 73 74 75 75 76 77 78 77 75 74 73 72 71 69 69 67 65 64 62 63 64 65 66 67 68 70
58 62 59 55 56 57 60 61 61 61 61 64 66 68 69 70 71 71 72 73 75 76 78 79 79 77 76 76 77 77 75 74 71 70 68 67 68 69 70 71 73 75 77
62 60 62 58 58 60 60 62 62 61 59 59 62 65 67 68 69 71 72 74 75 76 78 79 80 81 81 81 81 80 80 79 77 75 75 74 74 74 76 77 78 80 82
66 68 68 64 64 65 64 65 61 60 58 55 58 63 66 68 70 70 72 74 77 78 79 82 82 84 85 85 86 86 86 85 84 82 81 81 81 81 82 83 84 85 86
66 67 68 69 67 66 64 64 62 60 57 57 56 58 61 66 69 71 73 75 78 81 83 84 85 85 87 90 91 90 90 91 91 91 91 90 89 89 90 90 90 90 91
69 70 71 72 66 65 64 66 61 62 60 60 59 60 60 62 66 69 72 74 77 81 83 87 89 90 92 93 94 95 96 96 96 97 98 98 98 98 98 98 99 99 99
72 71 71 68 67 67 66 66 64 64 64 62 64 64 64 64 66 68 70 72 74 77 83 90 92 95 96 96 97 97 97 98 100 101 102 104 104 105 105 104 106 106 106
71 69 69 68 67 68 67 68 65 67 66 65 67 68 68 68 69 68 69 71 72 73 74 84 91 96 99 101 102 100 101 101 101 102 102 102 104 105 105 105 107 108 107
72 71 69 69 68 67 70 69 69 68 69 68 69 71 70 70 72 72 73 74 75 75 75 79 84 88 92 96 101 103 104 104 104 104 102 101 101 100 100 102 102 103 104
73 71 70 69 70 70 71 69 69 71 68 70 72 74 72 74 74 73 73 76 80 80 80 81 82 84 86 88 90 95 100 102 103 104 103 102 102 101 102 101 101 101 104
67 67 67 70 69 68 68 69 71 69 69 71 75 74 73 71 72 74 77 80 83 85 85 83 84 86 85 86 86 87 89 94 98 102 102 103 104 104 104 103 106 109 114
72 71 71 68 66 66 68 70 68 68 70 73 73 70 69 73 75 78 80 83 84 83 82 80 79 78 77 79 78 80 83 88 93 98 101 102 104 107 110 113 117 120 123
64 64 60 58 62 65 70 68 67 68 70 70 69 71 73 77 80 84 84 82 78 75 73 73 75 76 78 80 81 83 87 93 96 102 106 107 113 117 120 122 121 118 116
50 51 52 55 64 67 65 64 67 70 70 65 67 72 79 82 83 79 74 73 75 78 80 81 82 84 85 88 91 94 96 101 107 112 111 110 112 112 115 116 117 117 116
44 49 51 56 58 59 61 66 71 70 68 70 74 81 78 75 72 73 76 79 82 85 86 87 89 90 92 95 97 97 96 97 100 110 105 108 111 113 117 115 110 103 97
39 43 40 41 55 63 67 71 74 69 68 69 77 80 81 77 78 80 83 86 89 91 92 93 93 95 92 94 97 101 103 103 106 109 107 103 103 102 100 99 96 86 81
35 29 38 58 66 68 66 60 59 63 71 80 85 86 82 85 86 88 89 91 94 96 96 97 97 98 101 103 103 104 104 103 102 100 96 89 91 90 88 91 85 73 66
33 45 53 53 61 66 67 66 70 76 81 85 87 84 87 89 90 92 92 91 92 95 99 102 104 105 106 106 103 100 98 94 91 91 87 78 81 77 76 83 76 67 60
37 50 56 57 58 61 67 68 72 76 81 84 84 87 90 91 92 89 89 92 97 102 107 109 110 109 106 101 97 91 87 83 81 78 79 70 73 72 68 75 70 61 54

GFSMA_250_spd_027.txt.gz
Wind_Speed
80 81 84 84 85 86 86 84 84 79 77 74 74 74 73 73 71 70 68 67 68 68 67 65 64 63 60 59 59 58 59 56 54 53 52 49 48 46 45 47 49 50 49
82 84 85 82 83 83 83 81 78 75 72 72 73 74 73 73 72 71 69 69 69 69 69 68 66 65 63 61 59 59 58 56 55 53 50 50 50 48 46 49 50 50 50
81 78 80 79 78 74 75 74 71 72 72 70 70 72 73 73 73 72 72 71 70 69 69 69 69 68 66 63 62 61 60 59 58 57 56 52 49 51 51 52 51 51 52
69 71 69 70 68 69 69 69 68 68 70 69 70 71 71 72 73 74 72 71 71 70 69 69 70 70 68 67 66 66 63 61 59 59 58 56 52 51 51 53 55 54 54
60 62 61 60 61 63 63 62 63 65 67 67 68 70 71 72 73 73 73 72 72 71 70 70 69 69 70 70 71 69 68 66 64 63 61 59 56 54 54 55 56 58 59
61 60 58 57 57 58 58 59 60 59 59 61 63 66 67 70 72 72 72 73 72 71 71 71 70 69 69 71 72 72 72 71 69 69 66 65 61 59 58 57 58 59 61
67 66 65 62 61 58 55 55 56 59 59 58 58 61 62 64 66 70 71 71 71 72 72 71 70 71 71 71 73 72 73 74 73 72 72 72 70 67 66 64 62 60 60
66 62 63 63 63 59 59 59 64 61 59 60 62 61 62 62 63 66 69 71 70 70 71 71 71 72 73 72 73 75 76 77 77 76 76 76 74 74 72 70 69 67 64
72 70 70 71 70 70 69 66 64 64 62 63 67 68 63 62 61 62 64 66 68 70 72 73 73 73 75 75 75 76 77 78 79 79 79 79 80 78 77 75 74 72 71
73 74 73 71 70 70 67 68 70 70 73 74 74 72 66 63 58 58 61 62 63 65 68 71 73 75 76 77 79 80 81 81 82 84 85 85 85 84 83 82 81 79 77
70 72 72 75 75 75 73 71 73 74 72 73 76 72 69 64 61 59 60 61 63 64 63 64 68 73 78 81 81 81 83 85 87 88 89 90 90 90 89 89 89 88 86
77 76 76 76 76 77 76 75 74 73 71 73 73 71 70 67 65 63 63 62 63 65 65 66 67 69 72 76 80 84 86 88 90 92 94 96 97 97 96 96 95 94 94
78 78 77 76 75 74 75 74 76 75 73 72 72 70 69 70 68 69 66 65 65 68 70 72 72 71 72 74 76 78 82 86 91 96 99 100 101 102 102 102 102 101 101
86 80 75 75 74 73 74 75 76 74 74 72 72 72 68 72 71 71 69 69 68 70 73 76 76 76 76 78 80 80 82 85 87 90 91 94 97 101 105 106 106 104 103
84 82 78 73 72 71 73 74 73 74 72 72 72 72 72 73 72 73 71 71 72 70 69 72 75 79 81 85 85 85 87 88 89 89 89 90 91 94 96 100 104 108 108
87 84 80 75 72 72 73 72 72 72 73 72 74 76 75 74 74 75 73 75 74 70 69 74 79 83 86 90 90 89 91 91 91 90 89 89 90 89 89 92 93 96 100
90 86 83 78 75 75 75 73 72 71 72 74 74 76 76 74 76 75 74 76 74 73 74 79 84 86 87 87 85 83 83 82 82 83 83 84 84 84 84 86 87 89 91
89 87 85 80 76 74 72 70 71 70 73 75 73 75 76 78 79 77 77 76 75 78 84 85 84 79 79 80 77 78 81 83 83 85 87 86 87 88 89 91 92 93 96
93 89 86 79 75 75 73 70 69 70 71 72 74 75 77 80 80 78 81 79 82 88 90 80 75 78 80 83 83 85 86 88 90 93 94 93 94 95 98 100 101 103 105
77 85 83 75 72 69 69 66 65 69 69 69 71 78 79 78 79 82 82 86 87 88 82 80 82 83 85 88 89 90 92 94 92 96 97 97 99 101 105 104 106 109 111
62 70 71 67 63 61 63 65 66 64 64 73 79 80 78 80 82 83 84 85 82 82 84 86 90 92 92 95 94 91 89 92 98 102 101 103 103 103 106 106 107 108 109
51 51 54 55 53 55 56 56 58 67 72 78 78 77 75 74 73 81 77 79 83 88 91 94 98 97 94 93 94 96 99 100 104 109 105 107 103 102 102 102 100 98 96
31 33 34 39 40 44 48 55 61 70 71 73 74 74 72 74 77 80 82 86 90 94 97 101 96 95 96 100 102 104 105 105 106 103 98 100 93 94 94 93 92 87 82
23 28 29 24 33 42 53 59 60 66 71 70 68 72 77 78 82 85 90 91 96 100 102 100 100 102 105 109 108 106 104 102 100 98 92 86 86 86 85 86 84 77 68
20 24 25 34 48 49 53 56 63 69 75 79 78 81 83 85 90 92 93 96 100 104 102 103 106 110 113 112 107 104 99 95 92 91 86 78 81 75 73 77 76 69 63
19 29 35 38 48 54 61 63 65 69 76 78 80 85 87 88 91 93 97 100 102 101 105 109 113 116 114 111 104 95 90 86 81 78 78 73 72 66 70 72 69 64 61

GFSMA_250_spd_030.txt.gz
Wind_Speed
74 75 76 76 76 76 79 81 82 83 81 82 83 82 77 76 76 73 72 71 70 70 69 69 68 67 67 66 64 63 61 59 58 56 53 53 51 49 50 45 44 41 40
72 74 76 76 78 79 79 78 81 80 77 76 71 72 72 71 71 72 71 70 69 70 68 67 67 68 67 67 66 64 63 61 60 59 57 54 53 52 50 49 46 43 43
75 74 73 74 74 75 75 72 71 68 65 63 64 65 65 66 66 66 67 67 67 69 69 68 67 67 66 66 66 65 63 63 62 61 61 59 57 55 52 51 48 47 45
75 71 69 67 66 65 66 63 62 62 63 60 59 60 60 61 61 61 61 63 64 66 67 67 67 67 65 65 64 64 64 64 63 63 63 63 62 59 57 55 52 50 49
68 65 65 64 63 63 64 63 60 60 63 63 61 59 56 55 56 57 58 58 60 61 62 62 65 66 66 66 65 64 63 64 65 65 64 65 65 63 62 60 59 55 52
65 69 70 70 65 65 67 67 63 59 58 58 55 57 59 60 58 58 59 61 63 64 63 62 63 64 66 66 67 66 65 65 65 66 67 67 65 66 65 64 63 62 59
72 72 72 72 70 63 63 67 66 63 63 65 64 65 64 61 63 65 68 69 66 63 62 61 61 62 63 65 66 66 66 66 66 67 68 69 70 70 70 70 69 68 67
71 71 68 67 64 65 69 68 69 72 70 67 65 64 65 66 66 67 68 67 66 63 61 60 60 61 62 62 63 64 65 66 67 67 69 71 71 72 73 74 74 74 73
68 70 70 70 69 70 72 72 73 73 70 68 70 68 70 70 71 70 69 70 66 65 64 62 61 61 62 61 61 62 63 65 67 69 71 71 72 74 75 76 78 78 78
80 72 73 74 76 74 73 73 75 76 73 73 74 74 72 73 73 71 70 68 67 68 67 65 64 62 60 61 60 60 62 63 65 68 70 73 75 78 79 81 82 82 83
84 81 77 71 73 75 78 75 75 76 77 77 76 76 74 73 71 71 69 68 69 69 70 69 67 65 63 62 61 61 63 65 67 69 71 73 75 78 80 82 85 87 88
86 83 82 83 82 82 79 78 82 80 80 80 79 76 75 73 73 71 69 68 69 69 69 73 72 68 66 65 65 63 63 64 68 71 74 78 80 82 83 84 85 87 90
98 95 94 92 91 86 81 79 78 80 79 79 78 77 77 74 74 72 71 69 70 70 73 75 74 69 69 68 68 66 67 69 72 74 77 79 79 81 83 84 85 86 87
103 101 98 95 91 86 86 84 85 83 80 76 75 70 75 78 76 75 72 72 72 72 78 76 77 75 71 73 71 71 73 77 79 80 79 79 78 78 80 81 81 81 83
99 95 92 86 83 82 83 82 80 77 75 74 74 71 80 77 77 75 75 76 77 75 76 79 80 79 75 77 77 79 83 85 84 78 76 75 75 75 75 76 76 77 78
95 94 93 90 87 82 80 79 78 75 75 76 76 74 78 79 78 78 77 78 81 77 78 80 82 82 80 83 84 86 88 88 84 82 80 80 80 81 81 81 82 82 84
90 90 91 89 87 86 83 82 79 76 76 75 76 78 77 79 80 79 78 81 83 84 79 82 83 83 82 87 90 88 91 88 83 85 84 82 82 82 83 83 84 86 89
87 86 87 85 83 83 82 79 77 77 78 78 78 77 73 82 80 80 82 82 84 85 82 83 82 80 83 83 86 90 88 87 86 86 86 84 82 83 86 89 92 95 98
85 85 87 87 85 85 83 81 80 79 79 78 79 77 74 76 81 83 85 86 85 87 86 78 75 79 84 86 86 83 88 91 90 87 84 87 90 93 96 98 102 106 107
75 77 81 82 82 83 83 84 84 83 81 78 76 75 73 68 78 80 86 88 87 88 86 82 85 85 87 85 84 88 88 90 89 92 95 99 103 105 104 105 107 105 104
65 65 67 68 67 68 68 74 79 79 75 71 68 72 72 76 81 84 84 89 90 81 78 81 89 94 87 85 90 91 89 92 98 102 105 112 112 111 108 106 101 96 93
55 56 56 52 51 55 57 64 62 63 63 62 67 72 75 78 80 83 88 85 83 83 86 93 100 94 92 94 94 95 96 98 104 113 115 120 115 113 102 96 91 86 81
49 48 48 50 53 52 49 42 45 48 51 58 61 69 73 76 82 87 80 76 86 92 96 94 96 100 97 97 98 99 104 108 113 118 117 117 104 99 93 89 81 75 71
22 26 27 27 29 26 20 28 39 49 54 59 65 70 72 78 80 79 80 86 91 93 96 102 103 100 100 101 102 106 111 116 119 121 105 101 97 89 87 81 75 71 68
22 19 16 16 18 23 26 39 42 45 51 58 63 68 77 83 83 86 90 94 98 101 106 105 103 102 104 108 110 114 119 120 121 113 95 91 84 79 79 72 68 68 65
20 18 13 17 22 30 38 44 49 54 57 60 66 75 80 84 87 90 93 98 100 102 103 104 104 106 110 115 118 120 121 119 106 96 88 83 77 67 75 73 64 62 60

GFSMA_250_spd_033.txt.gz
Wind_Speed
65 65 67 67 66 67 70 71 72 73 74 76 76 74 74 72 67 63 62 59 60 60 62 61 60 61 61 61 61 61 61 60 60 58 58 58 57 55 52 50 49 46 45
66 68 68 68 68 69 72 71 73 74 75 73 71 70 70 64 60 57 54 55 55 55 55 54 54 56 56 58 58 59 60 61 61 58 58 57 58 57 56 54 52 51 49
68 69 70 70 70 71 72 72 71 70 70 69 66 65 65 64 64 58 56 53 50 50 48 48 50 51 50 52 53 54 56 58 59 59 58 56 57 57 57 58 56 54 53
71 70 70 68 70 71 72 71 66 66 69 66 65 62 60 61 59 55 54 53 56 54 52 54 56 58 57 54 53 54 55 56 56 57 57 57 56 56 58 58 59 58 57
70 68 67 67 68 69 66 65 67 67 67 64 59 60 63 61 62 63 59 59 57 56 57 58 58 58 55 53 53 53 54 55 56 58 57 56 57 58 58 59 59 60 60
71 70 70 70 69 71 68 68 68 68 65 65 62 63 63 63 65 66 64 62 61 61 62 62 62 60 55 53 52 52 54 55 56 57 59 59 58 57 58 59 59 60 62
71 70 70 70 71 70 69 69 69 70 65 63 64 64 68 68 69 67 65 66 67 67 64 63 61 61 58 58 55 53 53 54 55 57 57 58 60 61 60 60 60 62 62
77 75 73 72 72 74 76 73 72 71 70 70 70 71 70 72 70 71 69 70 71 69 65 61 62 61 59 60 60 58 58 56 55 56 56 56 56 58 61 62 64 65 65
82 82 79 78 76 77 76 75 74 74 74 74 72 73 73 76 71 72 75 74 73 69 64 62 62 61 61 62 63 64 63 62 60 58 57 56 56 56 57 59 63 65 68
87 81 74 75 77 78 78 77 74 76 77 77 76 74 76 75 75 75 75 76 74 70 68 64 63 61 61 63 65 66 68 68 63 61 59 58 59 59 60 63 65 67 69
91 85 83 81 81 75 75 74 74 76 79 79 81 80 77 77 78 78 78 78 75 73 69 67 66 65 63 65 67 67 70 69 66 62 61 61 60 60 62 66 68 69 70
94 93 90 86 85 83 79 81 82 80 80 78 78 80 80 78 77 77 78 78 77 75 69 69 69 67 66 67 69 69 72 71 69 64 64 64 67 71 72 73 72 70 71
105 104 104 101 98 95 93 89 87 87 87 84 81 80 80 81 80 80 78 77 73 75 74 76 73 73 72 70 71 72 74 73 72 70 68 69 72 74 76 77 71 71 70
107 107 107 102 96 90 86 82 80 81 81 84 86 86 86 83 82 79 77 76 75 78 78 79 78 77 75 75 78 76 76 76 74 70 71 76 74 77 78 75 72 73 75
108 107 106 104 102 98 93 86 84 84 82 82 80 79 80 82 81 81 79 81 82 79 80 82 81 81 79 82 82 82 83 77 75 72 73 74 77 81 83 77 77 76 78
109 110 110 109 105 102 99 96 89 85 83 81 78 76 78 79 81 80 82 82 81 81 83 82 84 85 85 86 87 87 90 75 71 77 79 80 83 86 86 80 83 87 85
103 102 100 97 95 92 91 89 90 89 83 83 82 81 78 80 82 80 86 86 83 84 85 82 87 87 89 90 90 91 81 78 79 80 83 84 86 87 86 88 85 84 80
98 101 98 94 90 88 84 80 79 80 84 86 83 84 88 85 82 70 76 82 85 86 90 89 92 90 91 94 90 89 80 80 81 87 90 89 89 88 89 84 83 84 87
81 85 89 92 87 83 84 82 80 77 75 79 80 81 84 83 82 79 83 83 83 87 89 90 86 91 95 94 93 80 81 92 96 95 93 94 92 87 85 87 90 92 91
62 70 76 82 85 84 81 80 77 78 80 80 82 83 85 83 85 84 84 80 82 84 89 90 93 96 96 97 83 85 90 94 96 99 98 93 92 94 95 98 96 92 93
50 54 64 71 74 77 79 78 78 75 75 76 78 80 80 78 81 85 85 83 86 86 88 91 95 94 91 85 84 90 94 97 99 98 95 102 100 104 106 102 97 92 93
40 43 45 51 58 59 59 61 61 64 66 68 71 71 72 72 74 69 75 79 80 86 89 93 94 94 87 90 91 91 96 96 96 102 101 109 107 114 111 104 95 91 87
23 27 33 42 49 50 48 46 47 55 63 59 54 54 50 51 59 67 72 75 83 86 88 90 87 88 93 96 97 99 101 98 103 108 107 111 115 122 117 108 91 86 81
9 14 19 25 33 39 42 46 49 51 46 42 37 42 48 52 64 69 72 78 84 87 87 87 91 95 97 97 98 98 103 105 109 113 109 115 122 122 115 99 85 77 72
1 6 13 16 21 28 34 38 38 34 34 43 45 49 56 61 67 74 74 76 82 89 92 95 97 96 95 96 100 104 107 111 113 116 112 118 117 105 99 84 75 69 63
18 8 2 11 14 12 16 26 35 40 40 45 47 54 60 63 67 70 73 78 84 90 95 97 95 97 99 102 105 109 110 112 114 116 110 104 97 85 83 78 67 59 59

GFSMA_250_spd_036.txt.gz
Wind_Speed
70 70 72 72 70 69 68 67 67 67 67 69 70 70 70 70 70 69 67 64 61 56 54 54 53 49 48 48 49 49 50 50 49 49 51 53 54 54 53 54 53 51 51
74 73 72 70 69 66 67 68 67 68 67 68 70 70 69 67 68 64 62 59 57 55 54 56 55 56 54 50 52 53 52 51 52 51 50 51 52 52 53 53 53 52 51
73 71 69 68 66 67 70 68 68 67 67 68 69 67 65 68 65 64 59 58 51 53 58 57 59 54 54 56 56 53 51 50 48 47 47 49 51 53 53 53 53 53 51
71 69 69 70 71 70 71 71 69 68 69 68 66 68 68 68 64 63 61 61 56 59 59 61 59 57 59 61 59 54 52 47 46 46 46 46 47 49 51 53 53 54 54
75 75 73 75 75 75 76 75 72 68 67 66 69 70 67 67 65 65 63 61 63 62 64 62 64 63 64 60 58 55 54 52 49 47 45 45 46 47 49 51 53 55 55
78 77 78 78 78 78 76 71 67 66 67 68 70 69 70 70 70 68 67 67 68 67 68 68 66 65 65 62 59 57 57 55 53 51 48 46 45 44 47 50 50 53 56
81 81 81 80 78 74 70 69 70 69 70 71 73 74 72 71 71 72 72 70 70 71 71 71 70 69 65 63 61 59 58 58 57 56 54 51 50 48 46 47 50 51 53
82 82 81 81 80 78 77 78 77 76 77 76 76 76 72 74 74 73 74 74 73 75 74 69 73 71 69 67 64 60 60 60 60 57 56 56 54 54 52 51 49 49 51
84 83 82 81 82 82 80 80 80 79 78 77 77 77 76 75 76 77 76 75 77 76 76 74 73 73 73 71 66 62 59 60 60 58 59 59 58 57 56 54 51 49 48
89 88 88 86 85 83 83 84 83 83 80 79 79 76 75 75 75 76 76 76 78 77 73 73 73 73 76 75 70 63 63 61 62 62 62 61 61 60 61 57 57 52 52
91 91 91 90 88 89 88 86 84 83 83 81 80 79 78 79 78 77 78 77 76 76 74 74 79 79 76 79 72 67 66 65 65 67 65 65 64 64 63 62 61 58 59
97 97 95 96 94 93 94 95 93 93 90 81 83 82 80 80 81 83 84 82 79 76 78 82 83 82 78 77 73 74 74 72 70 70 68 69 69 68 66 66 61 61 63
103 106 107 107 106 103 103 104 102 101 99 95 89 85 84 84 83 83 83 83 83 83 84 84 83 83 83 81 81 80 78 77 78 76 74 75 73 72 70 71 65 65 66
114 115 117 117 116 114 109 105 101 96 90 86 86 84 83 81 80 80 80 82 83 83 85 84 87 86 84 85 83 83 82 83 81 79 81 78 77 77 76 73 67 70 70
111 112 111 112 112 110 107 103 100 96 94 93 91 87 85 84 84 84 84 84 85 85 86 85 86 86 84 85 89 89 85 86 85 85 86 85 83 80 78 73 73 72 74
107 111 112 113 114 113 113 111 107 103 100 98 96 93 89 87 88 87 85 89 87 87 86 85 83 91 89 91 91 86 87 88 88 91 91 87 80 76 73 70 73 80 84
101 103 105 106 107 108 107 106 106 104 101 97 94 91 86 86 90 91 91 91 89 85 91 87 90 93 92 97 94 96 96 95 94 94 92 84 82 79 78 79 84 87 86
86 89 94 98 101 104 106 106 104 100 99 96 90 87 88 88 89 89 92 91 89 83 84 84 95 97 98 100 97 96 104 101 99 96 89 85 82 82 81 88 88 89 90
88 90 92 90 88 91 96 100 102 101 98 91 86 81 80 81 78 79 83 86 87 88 90 95 99 96 93 95 99 101 99 100 100 96 93 91 85 89 92 91 90 88 86
67 66 68 71 74 76 78 84 93 96 94 89 83 76 76 78 79 82 84 86 86 88 91 93 96 97 100 98 97 97 101 106 100 96 89 90 92 91 89 88 90 90 88
48 50 53 57 61 65 65 71 78 83 83 82 82 77 74 75 79 80 85 85 87 87 93 95 95 97 92 96 98 99 101 100 98 97 94 96 93 90 92 95 96 94 94
32 34 36 39 42 45 52 56 60 65 67 69 73 75 75 76 78 80 87 87 87 86 88 87 89 91 91 91 91 92 91 94 95 102 101 100 96 102 103 103 103 97 95
25 21 19 22 26 31 38 41 43 44 47 54 61 61 69 73 74 70 71 71 71 73 77 78 83 84 85 86 87 88 93 95 97 102 97 100 104 107 108 109 104 98 91
26 26 19 14 12 15 22 30 34 37 42 47 51 54 58 61 61 64 66 71 75 73 71 73 74 78 81 86 91 94 99 101 101 101 98 102 107 109 113 111 102 90 85
30 30 28 31 14 1 10 16 24 31 36 40 43 45 47 54 59 65 67 66 68 72 75 78 82 85 88 93 96 98 97 96 98 103 102 105 106 107 111 105 91 81 74
28 27 28 29 25 24 19 10 8 15 23 29 33 36 44 50 53 60 62 66 70 74 78 83 87 91 94 95 94 93 96 99 101 102 101 105 102 95 97 94 79 70 64

GFSMA_250_spd_039.txt.gz
Wind_Speed
71 72 72 72 72 73 71 71 69 68 67 65 66 67 67 68 67 66 66 66 64 64 63 61 55 52 55 50 50 51 50 54 53 51 49 48 46 47 47 47 47 47 48
71 71 72 71 71 71 70 69 69 68 68 66 68 69 70 70 69 67 68 65 65 63 63 61 57 54 54 56 56 57 56 56 54 49 46 46 45 43 44 44 44 45 47
75 76 77 76 73 73 73 73 72 72 73 71 71 72 72 71 70 68 66 65 66 66 64 62 60 57 57 59 61 61 59 57 54 52 48 46 45 44 43 43 43 43 43
75 76 76 76 76 76 75 75 74 74 76 75 74 74 73 69 66 65 66 68 67 70 67 67 64 61 60 62 63 63 63 59 55 54 52 50 47 46 43 41 42 41 39
78 78 77 77 79 78 77 79 78 77 76 76 74 72 70 67 67 67 68 70 71 71 69 70 69 67 65 64 65 65 66 62 57 55 55 51 49 48 45 42 39 40 39
82 84 83 83 81 81 81 82 79 77 77 77 74 69 68 67 70 72 71 73 74 71 74 73 73 71 69 67 68 69 67 67 63 60 58 53 52 49 47 46 44 41 39
83 86 87 87 84 82 81 81 83 80 79 78 78 77 77 78 77 74 74 73 75 74 74 75 74 72 72 68 66 68 68 69 64 67 60 56 54 53 50 50 50 46 44
87 85 84 86 87 88 85 86 86 82 82 81 81 80 79 77 78 77 74 73 73 74 75 73 73 72 69 70 69 65 68 66 69 69 69 58 56 54 53 54 54 51 49
88 88 88 90 90 89 89 89 87 87 87 86 86 84 82 80 81 78 76 74 75 74 75 75 73 73 73 75 70 67 68 70 71 71 66 60 58 57 57 57 57 57 55
88 89 91 89 89 90 90 92 91 90 89 88 88 85 83 81 79 76 76 76 76 76 76 76 76 77 79 75 72 73 74 75 73 72 69 69 67 65 62 59 60 59 59
94 92 91 90 89 92 93 94 93 91 90 88 88 87 85 84 81 80 81 77 77 79 80 78 80 77 78 79 77 75 76 77 76 75 74 74 73 69 67 64 64 62 62
95 97 97 97 97 96 98 100 100 100 100 101 100 100 100 97 95 93 86 85 84 82 79 79 80 83 80 78 77 78 79 78 78 80 79 76 76 74 76 72 69 66 67
98 100 103 105 105 107 107 108 109 109 109 108 106 102 99 94 91 86 85 84 83 83 81 82 79 78 79 81 82 83 83 84 85 84 79 78 78 82 82 78 73 73 73
103 104 110 114 116 116 113 111 109 107 106 104 103 99 97 92 87 82 73 86 81 78 78 82 83 85 85 88 86 91 90 89 87 85 83 82 84 86 83 77 76 76 77
112 115 114 113 113 113 113 113 113 113 112 109 106 103 100 95 92 87 85 84 85 86 89 87 87 87 88 93 89 92 92 89 92 92 96 94 89 90 89 88 88 83 80
109 107 108 105 105 105 105 108 107 106 108 110 108 105 103 99 95 91 87 84 73 79 84 88 87 88 83 89 96 94 97 97 95 91 86 91 97 96 95 93 93 86 80
97 93 90 92 92 92 94 96 100 104 106 105 105 105 102 98 97 93 86 78 60 63 71 78 80 80 83 95 93 92 96 96 96 97 100 104 105 104 101 99 97 91 90
82 83 89 94 93 96 100 104 104 102 103 101 101 102 102 97 92 89 87 87 89 92 96 100 99 98 102 102 104 101 106 104 104 104 104 105 106 105 105 105 100 94 90
79 85 93 91 92 92 97 99 103 103 102 101 99 97 97 95 93 89 86 87 90 95 96 98 104 108 106 100 98 97 98 100 100 104 108 106 106 106 104 102 97 88 85
69 74 78 76 78 81 75 70 71 77 81 93 97 97 93 87 86 87 88 86 86 88 91 91 93 95 99 99 100 101 103 102 103 105 106 106 106 98 91 87 87 88 89
59 63 65 59 59 55 54 55 56 58 60 63 72 79 81 81 80 79 81 82 84 85 85 87 90 91 99 99 97 100 102 103 103 105 97 93 94 89 88 89 89 90 90
52 56 52 50 42 37 33 34 37 41 44 48 51 56 59 63 58 65 72 74 79 82 84 85 88 90 91 99 102 97 95 90 90 90 83 84 87 89 92 93 94 94 93
41 42 39 40 36 29 24 22 23 23 27 32 35 40 45 50 58 65 62 65 71 77 79 84 89 92 90 88 85 85 88 87 90 93 90 95 93 94 97 95 94 95 95
32 30 33 32 32 33 24 21 19 16 14 13 14 19 27 36 44 47 54 62 64 67 68 71 73 80 81 81 82 84 88 90 92 92 91 98 95 97 100 98 96 94 93
30 31 34 36 35 32 29 28 25 22 17 14 12 16 22 29 35 41 47 51 54 57 60 64 67 73 79 83 87 91 93 94 95 94 94 97 95 95 99 97 97 94 89
31 34 34 32 31 29 28 26 24 22 19 18 16 17 19 25 31 37 42 49 54 60 66 72 77 82 85 89 92 94 95 95 95 95 93 96 94 93 102 100 94 84 78

GFSMA_250_spd_042.txt.gz
Wind_Speed
70 69 69 72 72 71 71 72 72 73 73 73 73 73 71 70 68 70 69 69 69 69 66 65 59 58 58 57 56 53 52 53 56 54 55 54 47 44 40 39 38 39 39
69 70 71 73 72 72 73 74 74 75 74 77 76 72 71 72 69 70 71 71 70 68 63 65 62 60 60 61 59 56 56 56 57 57 57 57 52 47 46 41 39 38 38
71 71 72 74 74 74 75 77 78 79 77 78 78 78 74 72 70 70 73 72 69 67 63 63 63 65 64 64 61 60 59 58 59 60 57 58 55 50 49 43 40 39 37
73 73 74 76 80 81 82 82 83 81 80 79 77 78 75 73 73 72 71 71 69 65 62 64 68 67 67 65 65 63 62 60 59 57 57 59 56 50 51 46 43 41 38
80 80 82 83 85 86 86 85 85 84 81 77 75 78 77 75 76 74 71 71 72 69 69 69 68 69 69 68 67 66 65 64 62 58 57 56 57 55 55 51 45 42 42
83 84 84 85 86 88 92 91 89 85 81 79 79 79 81 78 77 74 73 72 72 72 73 70 70 70 70 70 69 69 66 66 63 57 60 57 61 58 60 58 46 46 44
84 87 90 92 93 91 91 92 89 83 84 82 84 81 79 79 77 78 78 77 76 74 73 73 69 71 70 68 70 70 69 67 66 64 65 63 61 60 61 56 52 47 46
88 90 93 96 95 96 90 88 86 85 83 88 83 81 79 80 82 80 80 79 78 77 74 74 71 71 69 72 72 71 71 71 71 71 66 63 62 63 63 59 59 52 50
93 94 96 96 97 95 94 87 87 92 89 86 85 85 84 85 84 84 82 81 78 76 74 72 74 73 73 74 71 71 72 72 74 73 71 67 63 65 64 63 64 62 58
103 103 101 95 91 91 91 91 92 91 90 90 90 89 90 87 87 85 86 85 84 82 81 80 80 78 75 73 72 75 80 76 75 73 71 71 67 68 68 67 70 68 67
106 108 107 97 91 90 89 94 95 93 94 95 97 97 97 96 97 98 97 96 94 93 89 83 79 77 75 78 78 78 76 76 75 75 74 72 71 72 72 76 75 75 69
104 100 102 100 98 97 96 97 98 98 99 102 104 108 111 110 105 102 99 94 91 86 83 82 78 78 78 79 76 79 76 76 77 78 77 77 77 80 81 81 78 75 73
97 96 96 100 103 102 103 105 107 109 111 111 111 109 108 105 104 101 99 95 91 87 83 78 77 78 78 73 71 73 79 82 83 85 83 82 85 83 81 81 81 79 82
95 98 102 103 106 109 112 117 115 111 110 107 106 105 104 105 105 103 101 99 97 92 85 79 76 69 67 79 80 80 86 78 83 87 88 88 83 82 83 86 84 83 83
98 102 105 105 112 119 112 108 109 109 109 108 105 104 99 97 97 98 98 97 97 93 86 84 78 67 82 85 88 85 82 94 89 92 89 86 87 86 90 93 93 94 91
103 105 109 117 107 105 104 102 104 108 108 104 101 103 102 99 96 96 93 91 88 86 86 81 72 73 64 75 75 78 86 92 89 81 85 88 89 94 100 99 101 92 93
107 112 103 99 97 94 93 98 103 103 102 98 97 100 98 99 96 92 89 89 88 85 77 72 74 73 73 80 82 86 87 87 89 86 94 99 106 102 103 109 102 98 99
99 94 91 86 87 86 90 96 93 91 90 93 88 94 99 106 106 98 93 88 86 82 82 73 75 73 77 94 91 94 95 94 95 99 102 106 108 110 116 111 105 104 105
87 80 79 77 76 80 83 88 82 80 78 76 72 74 82 91 100 101 98 91 86 81 79 79 84 86 91 100 102 103 104 106 109 110 114 114 115 114 112 109 105 104 101
72 71 68 68 69 72 75 77 70 66 64 62 59 58 61 67 74 79 85 86 79 79 74 75 80 87 91 96 99 99 100 104 105 111 110 111 111 110 107 105 103 93 82
63 61 60 61 62 64 60 64 62 53 49 45 42 42 46 52 55 56 63 71 69 68 70 71 74 79 85 92 94 98 102 102 103 105 105 108 110 108 106 98 86 83 83
54 54 52 51 53 50 49 51 53 49 44 33 27 26 29 33 37 40 42 50 60 64 64 67 66 70 76 80 85 90 94 97 101 105 103 108 102 100 94 90 87 86 86
50 49 46 44 46 46 47 47 44 39 35 29 24 22 19 17 18 22 26 32 38 45 50 54 54 58 63 69 77 82 87 90 93 89 83 88 85 89 89 89 87 87 86
44 40 39 39 41 40 38 40 40 39 36 31 25 22 21 16 15 15 16 20 24 28 36 45 52 59 65 69 71 71 73 78 80 80 82 88 86 88 91 90 90 90 90
34 36 36 38 37 34 34 35 37 37 36 36 35 33 31 29 26 22 21 21 26 32 38 43 49 55 60 64 69 73 77 81 84 85 86 92 91 94 96 93 92 91 90
29 31 33 34 33 32 33 35 35 34 33 31 29 29 28 28 27 27 29 32 36 41 46 52 57 62 67 72 77 82 86 89 92 95 94 97 95 96 101 96 93 88 85